[[{"header":{"parameterUnit":"m.s-1","parameterCategory":1,"la1":30.2991,"la2":30.254,"lo1":-89.0895,"lo2":-89.0444,"dy":0.0017,"dx":0.0017,"nx":28,"ny":28,"refTime":"2025-04-30T21:00:00:Z","depth":0,"parameterNumber":2,"parameterNumberName":"U-component_of_WINDS"},"data":[0,0,0,0,0,0,0,0,0,0,0,0,0,0,0,0,0,0,0,0,0,0,0,0,0,0,0,0,0,0,0,0,0,0,0,0,0,0,0,0,0,0,0,0,0,0,0,0,0,0,0,0,0,0,0,0,0,0,-1.8389,-1.8389,0,-1.842,-1.842,-1.8421,-1.8414,-1.8413,-1.8412,-1.8412,-1.8445,-1.8446,-1.8447,0,0,0,0,0,0,0,0,0,0,0,0,0,-1.8325,-1.8327,-1.8389,-1.8389,-1.839,-1.842,-1.842,-1.8421,-1.8414,-1.8413,-1.8412,-1.8412,-1.8444,-1.8446,-1.8448,0,0,0,0,0,0,0,0,0,0,0,0,0,-1.8354,-1.8327,-1.8389,-1.839,-1.839,-1.842,-1.842,-1.8421,-1.8414,-1.8413,-1.8412,-1.8411,-1.8444,-1.8446,-1.8448,-1.8479,0,0,-1.8454,-1.8455,0,0,0,0,0,0,0,0,-1.8353,-1.8357,-1.8389,-1.839,-1.839,-1.8412,-1.841,-1.844,-1.8414,-1.8405,-1.8412,-1.8411,-1.8435,-1.8437,-1.8445,-1.848,-1.8482,-1.8455,-1.8456,-1.8457,-1.8457,0,0,0,0,0,0,0,-1.8351,-1.8355,-1.8401,-1.839,-1.839,-1.8389,-1.8392,-1.8416,-1.8424,-1.8406,-1.8405,-1.8409,-1.8435,-1.8443,-1.8446,-1.8482,-1.8454,-1.8456,-1.8458,-1.8458,-1.8545,-1.8546,0,0,0,0,0,0,-1.8348,-1.8354,-1.84,-1.8402,-1.8369,-1.8391,-1.8395,-1.8406,-1.8424,-1.8426,-1.841,-1.8409,-1.844,-1.8443,-1.8447,-1.8485,-1.8457,-1.8459,-1.846,-1.8544,-1.8545,-1.8546,0,0,0,0,0,0,-1.8347,-1.8352,-1.8399,-1.8378,-1.8384,-1.8393,-1.8406,-1.8407,-1.8415,-1.8427,-1.8429,-1.8417,-1.8439,-1.8444,-1.8471,-1.8486,-1.846,-1.8462,-1.8543,-1.8544,-1.8546,-1.856,0,0,0,0,0,0,-1.8345,-1.8352,-1.8363,-1.8378,-1.8385,-1.8422,-1.8407,-1.8408,-1.8419,-1.8418,-1.8434,-1.8436,-1.8439,-1.8468,-1.8473,-1.8488,-1.8463,-1.8542,-1.8544,-1.8545,-1.8559,-1.8562,-1.8565,0,0,0,0,0,-1.8343,-1.8366,-1.8364,-1.8369,-1.8399,-1.8423,-1.8427,-1.843,-1.842,-1.8432,-1.844,-1.8435,-1.8484,-1.8471,-1.8477,-1.8493,-1.8541,-1.8543,-1.8545,-1.8557,-1.8561,-1.8565,0,0,0,0,0,0,-1.8353,-1.8368,-1.8366,-1.8394,-1.8407,-1.8422,-1.8436,-1.8434,-1.845,-1.8448,-1.8452,-1.8455,-1.8483,-1.8491,-1.8476,-1.8524,-1.8511,-1.8514,-1.8518,-1.8522,-1.8525,-1.8523,-1.8465,0,0,0,0,0,-1.8358,-1.8376,-1.8388,-1.8412,-1.8419,-1.8427,-1.8437,-1.8438,-1.8452,-1.8457,-1.8467,-1.8481,-1.8499,-1.8511,-1.8529,-1.856,-1.8564,-1.8574,-1.8577,-1.858,-1.8583,-1.8601,-1.8606,-1.8554,-1.8554,-1.8554,0,0,-1.837,-1.838,-1.8391,-1.8415,-1.8425,-1.8443,-1.8431,-1.8451,-1.8465,-1.8461,-1.8487,-1.8494,-1.851,-1.854,-1.8553,-1.8547,-1.8598,-1.8583,-1.8585,-1.8587,-1.8604,-1.8609,-1.8613,-1.8556,-1.8555,-1.8555,0,0,-1.84,-1.841,-1.8431,-1.8442,-1.8457,-1.8463,-1.8468,-1.8483,-1.8488,-1.8514,-1.8511,-1.8528,-1.8559,-1.8571,-1.8581,-1.8617,-1.8614,-1.8623,-1.864,-1.8658,-1.8662,-1.8665,-1.8679,-1.8683,-1.8626,-1.8626,-1.8626,0,-1.8413,-1.844,-1.8443,-1.8463,-1.8474,-1.8471,-1.8493,-1.8503,-1.8524,-1.8532,-1.8525,-1.8564,-1.8575,-1.8607,-1.8616,-1.8624,-1.8631,-1.8621,-1.8661,-1.8665,-1.8668,-1.8681,-1.8686,-1.8627,-1.8627,-1.8627,-1.8627,0,-1.8455,-1.8474,-1.849,-1.851,-1.8522,-1.8543,-1.855,-1.8563,-1.8563,-1.8569,-1.8597,-1.8609,-1.8629,-1.8637,-1.8638,-1.867,-1.8666,-1.866,-1.8647,-1.8674,-1.8686,-1.8691,-1.8628,-1.8628,-1.8628,-1.8627,0,0,-1.8492,-1.8513,-1.8519,-1.8528,-1.8546,-1.8561,-1.8583,-1.8602,-1.8614,-1.8628,-1.8647,-1.8674,-1.8669,-1.868,-1.8682,-1.8698,-1.8726,-1.869,-1.869,-1.8696,-1.8763,-1.8768,-1.8773,-1.8724,-1.8725,-1.8726,-1.8762,0,-1.8524,-1.8561,-1.8565,-1.8599,-1.8617,-1.8615,-1.8634,-1.8647,-1.8654,-1.8671,-1.8678,-1.8697,-1.8689,-1.8696,-1.8711,-1.8719,-1.874,-1.8717,-1.8742,-1.8743,-1.8738,-1.878,-1.8784,-1.8817,-1.8767,-1.8767,-1.8768,0,-1.8566,-1.8582,-1.8618,-1.8634,-1.8641,-1.8658,-1.8677,-1.8693,-1.8708,-1.8712,-1.8726,-1.8726,-1.8749,-1.8735,-1.8768,-1.8752,-1.8763,-1.8769,-1.877,-1.8773,-1.8757,-1.8783,-1.8828,-1.8833,-1.8775,-1.8775,-1.8774,0,-1.859,-1.862,-1.8646,-1.8654,-1.8673,-1.8685,-1.8693,-1.8708,-1.872,-1.8736,-1.8744,-1.8764,-1.8774,-1.879,-1.8796,-1.8785,-1.8828,-1.8815,-1.8832,-1.8832,-1.8841,-1.884,-1.8888,-1.8848,-1.8848,-1.8848,-1.8848,0,-1.8626,-1.8648,-1.8657,-1.8672,-1.8697,-1.8702,-1.8726,-1.8734,-1.8748,-1.8765,-1.8765,-1.8782,-1.8788,-1.8807,-1.8812,-1.8838,-1.8843,-1.8847,-1.8848,-1.8847,-1.8846,-1.8854,-1.8852,-1.8849,-1.8849,-1.8849,-1.8848,0,-1.8656,-1.8663,-1.8691,-1.8706,-1.8711,-1.8729,-1.8742,-1.8758,-1.8765,-1.8787,-1.8793,-1.8804,-1.8825,-1.8833,-1.8859,-1.8862,-1.8893,-1.8892,-1.8887,-1.8888,-1.8905,-1.8903,-1.8959,-1.8967,-1.8922,-1.8922,-1.8922,0,-1.8678,-1.8695,-1.8713,-1.8724,-1.8733,-1.8752,-1.8764,-1.877,-1.8783,-1.8802,-1.8815,-1.8837,-1.8854,-1.8888,-1.8899,-1.8919,-1.8919,-1.8937,-1.8922,-1.8921,-1.8919,-1.8918,-1.892,-1.894,-1.894,-1.8941,-1.8941,0,-1.8717,-1.872,-1.8737,-1.8756,-1.8771,-1.8786,-1.8801,-1.881,-1.8818,-1.8833,-1.8855,-1.8868,-1.8895,-1.8916,-1.8937,-1.8947,-1.8946,-1.8946,-1.8951,-1.895,-1.8947,-1.8949,-1.8895,-1.8944,-1.8944,-1.8944,-1.8944,-1.8944,-1.8745,-1.876,-1.8775,-1.8794,-1.8806,-1.882,-1.8835,-1.8844,-1.8862,-1.8884,-1.8886,-1.891,-1.8926,-1.8954,-1.8965,-1.8984,-1.8979,-1.8986,-1.8988,-1.899,-1.8991,-1.8944,-1.8987,-1.8987,-1.8987,-1.8987,-1.8987,0,-1.8784,-1.8793,-1.8811,-1.8832,-1.8848,-1.8845,-1.8861,-1.8875,-1.8895,-1.891,-1.8927,-1.8953,-1.8974,-1.8986,-1.9007,-1.902,-1.9021,-1.9026,-1.9025,-1.9027,-1.8994,-1.8988,-1.9025,-1.9025,-1.9025,-1.9025,-1.9025,-1.9025,-1.8806,-1.8832,-1.8836,-1.8868,-1.8878,-1.89,-1.891,-1.8923,-1.8935,-1.8964,-1.8981,-1.8989,-1.9003,-1.9025,-1.9045,-1.9048,-1.9056,-1.9062,-1.9065,-1.9034,-1.903,-1.9026,-1.902,-1.9064,-1.9064,-1.9096,-1.9097,-1.9097]},{"header":{"parameterUnit":"m.s-1","parameterCategory":1,"la1":30.2991,"la2":30.254,"lo1":-89.0895,"lo2":-89.0444,"dy":0.0017,"dx":0.0017,"nx":28,"ny":28,"refTime":"2025-04-30T21:00:00:Z","depth":0,"parameterNumber":3,"parameterNumberName":"V-component_of_WINDS"},"data":[0,0,0,0,0,0,0,0,0,0,0,0,0,0,0,0,0,0,0,0,0,0,0,0,0,0,0,0,0,0,0,0,0,0,0,0,0,0,0,0,0,0,0,0,0,0,0,0,0,0,0,0,0,0,0,0,0,0,5.6985,5.6985,0,5.6964,5.6964,5.6964,5.6901,5.6899,5.6898,5.6896,5.6877,5.6878,5.6878,0,0,0,0,0,0,0,0,0,0,0,0,0,5.6972,5.6973,5.6985,5.6985,5.6984,5.6964,5.6964,5.6964,5.6901,5.6899,5.6897,5.6896,5.6877,5.6878,5.6878,0,0,0,0,0,0,0,0,0,0,0,0,0,5.6967,5.6973,5.6985,5.6951,5.6947,5.6964,5.6964,5.6963,5.6901,5.6899,5.6897,5.6895,5.6876,5.6877,5.6879,5.6928,0,0,5.6882,5.6883,0,0,0,0,0,0,0,0,5.6968,5.6968,5.6956,5.6953,5.6949,5.6933,5.6952,5.6951,5.6902,5.6919,5.6896,5.6894,5.6897,5.6897,5.6897,5.6927,5.6926,5.6882,5.6883,5.6883,5.6884,0,0,0,0,0,0,0,5.6968,5.6968,5.6977,5.6956,5.6952,5.6937,5.6934,5.6952,5.692,5.6917,5.6912,5.6911,5.6895,5.6896,5.6896,5.6925,5.6882,5.6883,5.6884,5.6884,5.6993,5.6995,0,0,0,0,0,0,5.6973,5.6969,5.6977,5.6976,5.6954,5.6939,5.6935,5.694,5.692,5.6914,5.6913,5.6908,5.6895,5.6895,5.6895,5.695,5.6883,5.6885,5.6885,5.6991,5.6994,5.6996,0,0,0,0,0,0,5.6973,5.6975,5.6978,5.6971,5.6971,5.6941,5.6947,5.6941,5.6942,5.6916,5.691,5.6919,5.6894,5.6894,5.692,5.6949,5.6885,5.6886,5.6989,5.6992,5.6995,5.7061,0,0,0,0,0,0,5.6973,5.6975,5.6993,5.6972,5.6971,5.7002,5.6949,5.6942,5.6944,5.6938,5.6921,5.6916,5.6892,5.6918,5.6921,5.6949,5.6887,5.6986,5.699,5.6994,5.7056,5.7066,5.7075,0,0,0,0,0,5.6973,5.7013,5.6994,5.6995,5.6993,5.7004,5.7004,5.6974,5.6947,5.6964,5.6948,5.6917,5.6946,5.6922,5.6924,5.6953,5.6984,5.6989,5.6994,5.7052,5.7064,5.7075,0,0,0,0,0,0,5.7038,5.7009,5.6988,5.7022,5.7016,5.6993,5.7015,5.6988,5.699,5.6984,5.6949,5.6945,5.6976,5.6968,5.6941,5.6999,5.696,5.6965,5.7003,5.7015,5.7024,5.7024,5.6888,0,0,0,0,0,5.7056,5.7067,5.7042,5.7075,5.7072,5.7045,5.7048,5.7026,5.7019,5.7016,5.7001,5.6995,5.7003,5.7009,5.7014,5.7055,5.7051,5.7077,5.7086,5.7094,5.7099,5.7119,5.713,5.7012,5.7012,5.7012,0,0,5.7094,5.708,5.7089,5.7087,5.708,5.7092,5.7043,5.7058,5.7067,5.7018,5.7041,5.7031,5.7022,5.7055,5.707,5.7049,5.713,5.71,5.7107,5.7107,5.7125,5.7136,5.7146,5.7016,5.7015,5.7015,0,0,5.7168,5.7159,5.7185,5.7178,5.7168,5.7149,5.7155,5.7137,5.7128,5.715,5.7114,5.7125,5.7139,5.7134,5.7133,5.7207,5.7178,5.721,5.7258,5.7278,5.7288,5.7296,5.7321,5.733,5.7215,5.7216,5.7216,0,5.7217,5.7233,5.7202,5.7219,5.7219,5.7176,5.7202,5.7197,5.7189,5.7191,5.7168,5.7185,5.7176,5.7207,5.7225,5.7227,5.7232,5.7211,5.7289,5.7296,5.7303,5.7327,5.7337,5.7219,5.7219,5.7218,5.7218,0,5.7292,5.7305,5.7327,5.7319,5.7323,5.7344,5.7316,5.7324,5.7302,5.7286,5.731,5.7298,5.73,5.7306,5.7286,5.7335,5.7322,5.7295,5.7254,5.7319,5.734,5.7349,5.7225,5.7223,5.7222,5.7221,0,0,5.7406,5.7381,5.7389,5.7385,5.737,5.7379,5.74,5.7401,5.7408,5.7405,5.742,5.7433,5.7408,5.7407,5.7386,5.7404,5.7462,5.7374,5.7374,5.739,5.7514,5.7533,5.7544,5.7444,5.7446,5.7447,5.7515,0,5.7475,5.7506,5.7479,5.7516,5.7527,5.7486,5.7504,5.7497,5.7483,5.7491,5.7476,5.7485,5.7452,5.7451,5.7467,5.7452,5.7486,5.7447,5.7458,5.7458,5.7459,5.7556,5.7576,5.764,5.7523,5.7524,5.7525,0,5.7559,5.7559,5.7597,5.7579,5.7583,5.7599,5.7598,5.7606,5.7598,5.7587,5.7586,5.756,5.7579,5.7541,5.7567,5.754,5.7544,5.7537,5.7539,5.7537,5.7494,5.7555,5.766,5.7669,5.7539,5.7537,5.7537,0,5.7636,5.7645,5.7668,5.7667,5.7647,5.766,5.7652,5.7642,5.7645,5.7645,5.7646,5.7649,5.765,5.7653,5.7628,5.7603,5.7657,5.7617,5.7647,5.7648,5.7659,5.7658,5.7764,5.7664,5.7664,5.7664,5.7664,0,5.7715,5.7739,5.7702,5.7717,5.7743,5.7712,5.774,5.7728,5.772,5.7731,5.7698,5.771,5.7677,5.7686,5.7668,5.7691,5.7693,5.7684,5.7678,5.7685,5.7686,5.7686,5.768,5.7667,5.7666,5.7666,5.7665,0,5.7804,5.778,5.7803,5.7783,5.7779,5.7799,5.7782,5.7795,5.7779,5.7795,5.7797,5.7772,5.7781,5.7757,5.7763,5.775,5.7783,5.7772,5.7786,5.7781,5.7812,5.7809,5.792,5.7933,5.7827,5.7828,5.7829,0,5.7855,5.7872,5.7854,5.7859,5.7854,5.7863,5.7865,5.7836,5.784,5.7832,5.7846,5.7852,5.7855,5.7871,5.7854,5.7858,5.7844,5.7883,5.7845,5.7851,5.7843,5.7841,5.7843,5.789,5.7892,5.7893,5.7894,0,5.7947,5.7935,5.7939,5.7939,5.7943,5.7942,5.7939,5.7946,5.7915,5.7921,5.7929,5.7931,5.7936,5.7942,5.7943,5.7936,5.791,5.7906,5.7913,5.792,5.7927,5.7922,5.7805,5.7903,5.7902,5.7902,5.7901,5.7901,5.8017,5.8031,5.802,5.8026,5.8021,5.8019,5.8029,5.8015,5.8021,5.8022,5.8005,5.8017,5.8009,5.8006,5.8002,5.8011,5.7993,5.8004,5.8006,5.8009,5.8013,5.7927,5.8011,5.8011,5.8011,5.8011,5.801,0,5.8106,5.8097,5.8103,5.81,5.8105,5.808,5.8075,5.8081,5.8091,5.8086,5.8089,5.8099,5.8104,5.8088,5.8092,5.8102,5.809,5.8104,5.8102,5.8101,5.803,5.8022,5.8113,5.8113,5.8113,5.8113,5.8113,5.8113,5.8153,5.8174,5.8161,5.8179,5.817,5.8181,5.818,5.8178,5.8173,5.8185,5.8189,5.8179,5.8169,5.8172,5.8176,5.8171,5.8174,5.8191,5.8182,5.8116,5.8106,5.8096,5.8089,5.8192,5.8193,5.8252,5.8253,5.8253]}]]